Wokal Field Glasgow International Airport
KGGW : now visible

Airfield :











YOU CAN JOIN US ON...

 
LOGIN :

Register | Disclaimer

   EN    FR    IT 

 









Legend :    VFR   Marginal VFR   IFR   Intensive IFR   Very Intensive IFR
Visi :
Ceiling :
>= 8 km
>= 3000ft
5 to 8 km
1000 to 3000 ft
1500m to 5 km
500 to 1000 ft
800 to 1500m
200 to 500 ft
< 800m
< 200 ft
Symbols :   Thunderstorms  Fog  Heavy snow  Heavy precipitations  Wind > 20 kt






- Airport Elevation : 2296 ft
- IATA code : GGW


KGGW - Wokal Field Glasgow International

CURRENT METAR :
  • 041353Z AUTO 35007KT 10SM CLR M15/M18 A2988 RMK AO2 SLP177 T11501178

EXPIRED METARs :
  • 041253Z AUTO 06004KT 10SM CLR M17/M19 A2989 RMK AO2 SLP182 T11671194
  • 041153Z AUTO 01003KT 10SM CLR M18/M21 A2993 RMK AO2 SLP197 T11831211 11156 21228 58040

TAF KGGW
Valid from the 04 at 12:00 until the 05 at 12:00 UTC


041138Z 0412/0512 33010KT P6SM FEW035
FM042000 30015KT P6SM FEW150
FM050300 31010KT P6SM BKN045
FM050600 32015KT P6SM BKN070
KZLC FIR / North America



MET'MAP, your aeronautical weather chart ! - Copyright ORBIFLY December 2007 - Disclaimer

ORBIFLY MET'MAP TEAM :

Programming & Development : Alexandra Zaïnal
Original concept : Baudouin d'Aumeries
Technical & hardware support : Manuel Goepfert
Assistance : Marc-Olivier Méhu




SOURCES & CREDITS :

   NOAA       Earth
Advisory